Change the Weather History Date:

Tuesday, October 29, 2013

  Actual Average Record
Temperature  
Mean Temperature 50 °F -  
Max Temperature 62 °F 65 °F 80 °F (1984)
Min Temperature 39 °F 42 °F 29 °F (1965)
Degree Days  
Heating Degree Days 14    
Moisture  
Dew Point 46 °F    
Average Humidity 85    
Maximum Humidity 100    
Minimum Humidity 52    
Precipitation  
Precipitation 0.00 in - - ()
Sea Level Pressure  
Sea Level Pressure 30.33 in    
Wind  
Wind Speed 6 mph (NE)    
Max Wind Speed 10 mph    
Max Gust Speed -    
Visibility 10 miles    
Events      
Averages and records for this station are not official NWS values.
T = Trace of Precipitation, MM = Missing Value Source: NWS Daily Summary

Daily Weather History Graph

Daily Weather History Graph

Search for Another Location

Airport or City:

Trip Planner

Search our weather history database for the weather conditions in past years. The results will help you decide how hot, cold, wet, or windy it might be!

Date:

Astronomy

Oct. 29, 2013 Rise Set
Actual Time 7:26 AM EDT 6:04 PM EDT
Civil Twilight 6:58 AM EDT 6:31 PM EDT
Nautical Twilight 6:27 AM EDT 7:03 PM EDT
Astronomical Twilight 5:56 AM EDT 7:34 PM EDT
Moon 2:16 AM EDT (10/29) 3:14 PM EDT (10/29)
Length of Visible Light 11h 32m
Length of Day
10h 37m
Waning Crescent, 25% of the Moon is Illuminated
Oct 29
Waning Crescent
Nov 3
New
Nov 10
First Quarter
Nov 17
Full
Nov 25
Last Quarter

Hourly Weather History & Observations

Time (EDT) Temp. Windchill Dew Point Humidity Pressure Visibility Wind Dir Wind Speed Gust Speed Precip Events Conditions
12:55 AM 44.6 °F 42.2 °F 44.6 °F 100% 30.27 in 10.0 mi NNW 4.6 mph - N/A   Clear
1:55 AM 42.8 °F 40.1 °F 42.8 °F 100% 30.27 in 10.0 mi NNW 4.6 mph - N/A   Clear
2:55 AM 41.0 °F 37.1 °F 41.0 °F 100% 30.28 in 10.0 mi North 5.8 mph - N/A   Clear
3:55 AM 41.0 °F 37.1 °F 41.0 °F 100% 30.29 in 10.0 mi Variable 5.8 mph - N/A   Clear
4:55 AM 41.0 °F 35.8 °F 39.2 °F 93% 30.30 in 10.0 mi NNE 8.1 mph - N/A   Clear
5:55 AM 41.0 °F 35.2 °F 41.0 °F 100% 30.32 in 10.0 mi North 9.2 mph - N/A   Clear
6:55 AM 39.2 °F 35.0 °F 39.2 °F 100% 30.33 in 10.0 mi Variable 5.8 mph - N/A   Clear
7:55 AM 42.8 °F 37.0 °F 42.8 °F 100% 30.35 in 10.0 mi North 10.4 mph - N/A   Clear
8:55 AM 48.2 °F - 46.4 °F 93% 30.36 in 10.0 mi Variable 6.9 mph - N/A   Clear
9:55 AM 53.6 °F - 46.4 °F 77% 30.37 in 10.0 mi NNE 4.6 mph - N/A   Clear
10:55 AM 57.2 °F - 46.4 °F 67% 30.37 in 10.0 mi NNE 6.9 mph - N/A   Clear
11:55 AM 59.0 °F - 46.4 °F 63% 30.37 in 10.0 mi NNE 5.8 mph - N/A   Clear
12:55 PM 60.8 °F - 46.4 °F 59% 30.34 in 10.0 mi Variable 3.5 mph - N/A   Clear
1:55 PM 62.6 °F - 46.4 °F 55% 30.31 in 10.0 mi Variable 3.5 mph - N/A   Clear
2:55 PM 62.6 °F - 46.4 °F 55% 30.31 in 10.0 mi ESE 5.8 mph - N/A   Partly Cloudy
3:55 PM 62.6 °F - 44.6 °F 52% 30.31 in 10.0 mi East 8.1 mph - N/A   Clear
4:55 PM 60.8 °F - 44.6 °F 55% 30.32 in 10.0 mi East 6.9 mph - N/A   Clear
5:55 PM 55.4 °F - 51.8 °F 88% 30.31 in 10.0 mi East 8.1 mph - N/A   Clear
6:58 PM 54.3 °F - 51.3 °F 89% 30.33 in 10.0 mi East 8.1 mph - N/A   Clear
7:55 PM 51.8 °F - 51.8 °F 100% 30.34 in 10.0 mi Variable 5.8 mph - N/A   Clear
8:55 PM 51.8 °F - 51.8 °F 100% 30.34 in 10.0 mi Variable 4.6 mph - N/A   Clear
9:55 PM 50.0 °F - 50.0 °F 100% 30.35 in 10.0 mi Variable 2.3 mph - N/A   Clear
10:55 PM 50.0 °F - 50.0 °F 100% 30.35 in 10.0 mi Variable 1.2 mph - N/A   Clear
11:55 PM 50.0 °F - 50.0 °F 100% 30.34 in 10.0 mi Calm Calm - N/A   Partly Cloudy